{"data":{"norad_id":54133,"epoch":"2026-05-24T22:29:13.687872Z","epoch_age_seconds":80406,"freshness":"FRESH","line1":"1 54133U 22138W   26144.93696398  .00000083  00000+0  17236-3 0  9994","line2":"2 54133  87.9179 279.0649 0001980 124.8157 235.3163 13.20771836176232","mean_motion":13.20771836,"eccentricity":0.000198,"inclination_deg":87.9179,"raan_deg":279.0649,"arg_perigee_deg":124.8157,"mean_anomaly_deg":235.3163,"bstar":0.00017236,"rev_number":17623,"period_min":109.02715826839,"perigee_km":1180.276422476,"apogee_km":1183.2701469487,"semimajor_km":7559.9102847123,"source":"CELESTRAK","updated_at":"2026-05-25T13:38:22.588874Z"}}